Location: Aragüita
(10.0436°N, 67.8028°W)
Time: 12:04:17
(UTC+00:00)

PAYLOAD B - Pass Details

Date: 14 April 2024
Orbit: 848 x 870 km, 99.1° (Epoch: 30 May)

Event Time Altitude Azimuth Distance (km) Brightness Sun altitude
Exits shadow 00:26:26 52° 170° (S) 1,051 4.4 -26.0°
Maximum altitude 00:27:52 88° 254° (WSW) 857 4.1 -26.3°
Drops below altitude 10° 00:33:23 10° 347° (NNW) 2,483 7.0 -27.6°
Sets 00:35:46 0° 347° (NNW) 3,423 7.7 -28.2°
